Jackson, MN

9:51 AM CDT on October 17, 2017 (GMT -0500)
Jackson Municipal

Weather History for KMJQ - April, 2014

Change the Weather History Date:

Sunday, April 13, 2014

  Actual Average Record
Temperature  
Mean Temperature 38 °F -  
Max Temperature 44 °F 53 °F 84 °F (2006)
Min Temperature 32 °F 33 °F 23 °F (2004)
Degree Days  
Heating Degree Days 27    
Moisture  
Dew Point 33 °F    
Average Humidity 82    
Maximum Humidity 93    
Minimum Humidity 69    
Precipitation  
Precipitation 0.00 in - - ()
Sea Level Pressure  
Sea Level Pressure 29.83 in    
Wind  
Wind Speed 16 mph (North)    
Max Wind Speed 26 mph    
Max Gust Speed 43 mph    
Visibility 8 miles    
Events Snow    
Averages and records for this station are not official NWS values.
T = Trace of Precipitation, MM = Missing Value Source: NWS Daily Summary

Daily Weather History Graph

Daily Weather History Graph

Search for Another Location

Airport or City:

Trip Planner

Search our weather history database for the weather conditions in past years. The results will help you decide how hot, cold, wet, or windy it might be!

Date:

Astronomy

Apr. 13, 2014 Rise Set
Actual Time 6:40 AM CDT 8:01 PM CDT
Civil Twilight 6:10 AM CDT 8:30 PM CDT
Nautical Twilight 5:35 AM CDT 9:06 PM CDT
Astronomical Twilight 4:57 AM CDT 9:44 PM CDT
Moon 6:37 PM CDT (4/13) 5:43 AM CDT (4/13)
Length of Visible Light 14h 20m
Length of Day
13h 20m
Waxing Gibbous, 97% of the Moon is Illuminated
Apr 13
Waxing Gibbous
Apr 15
Full
Apr 22
Last Quarter
Apr 29
New
May 6
First Quarter

Hourly Weather History & Observations

Time (CDT) Temp. Windchill Dew Point Humidity Pressure Visibility Wind Dir Wind Speed Gust Speed Precip Events Conditions
12:12 AM 44.6 °F 39.7 °F 41.0 °F 87% 29.71 in 5.0 mi NE 9.2 mph - N/A   Scattered Clouds
12:32 AM 44.6 °F 38.8 °F 42.8 °F 93% 29.72 in 5.0 mi ENE 11.5 mph - N/A   Scattered Clouds
12:53 AM 44.6 °F 38.8 °F 41.0 °F 87% 29.72 in 5.0 mi NE 11.5 mph - N/A   Clear
1:12 AM 44.6 °F 39.7 °F 41.0 °F 87% 29.73 in 4.0 mi NE 9.2 mph - N/A   Clear
1:32 AM 44.6 °F 39.2 °F 42.8 °F 93% 29.75 in 4.0 mi ENE 10.4 mph - N/A   Scattered Clouds
1:52 AM 44.6 °F 38.8 °F 42.8 °F 93% 29.75 in 4.0 mi NE 11.5 mph - N/A   Mostly Cloudy
2:13 AM 44.6 °F 38.4 °F 42.8 °F 93% 29.75 in 4.0 mi ENE 12.7 mph - N/A   Overcast
2:32 AM 44.6 °F 38.1 °F 42.8 °F 93% 29.76 in 4.0 mi NNE 13.8 mph - N/A   Overcast
2:52 AM 44.6 °F 39.7 °F 42.8 °F 93% 29.77 in 3.0 mi NE 9.2 mph - N/A   Overcast
3:13 AM 44.6 °F 39.7 °F 42.8 °F 93% 29.77 in 3.0 mi NNE 9.2 mph - N/A   Overcast
3:32 AM 44.6 °F 38.8 °F 42.8 °F 93% 29.77 in 3.0 mi NNE 11.5 mph - N/A   Overcast
3:52 AM 44.6 °F 38.4 °F 41.0 °F 87% 29.77 in 3.0 mi NNE 12.7 mph - N/A   Overcast
4:13 AM 44.6 °F 38.4 °F 41.0 °F 87% 29.77 in 3.0 mi North 12.7 mph - N/A   Overcast
4:32 AM 44.6 °F 38.8 °F 41.0 °F 87% 29.77 in 3.0 mi North 11.5 mph 19.6 mph N/A   Overcast
4:52 AM 44.6 °F 37.4 °F 41.0 °F 87% 29.77 in 3.0 mi North 16.1 mph - N/A   Overcast
5:13 AM 44.6 °F 37.4 °F 41.0 °F 87% 29.76 in 5.0 mi North 16.1 mph 25.3 mph N/A   Overcast
5:32 AM 44.6 °F 36.9 °F 41.0 °F 87% 29.77 in 5.0 mi North 18.4 mph 24.2 mph N/A   Overcast
5:52 AM 42.8 °F 35.4 °F 41.0 °F 93% 29.78 in 5.0 mi North 15.0 mph 27.6 mph N/A   Overcast
6:13 AM 42.8 °F 34.8 °F 39.2 °F 87% 29.80 in 5.0 mi North 17.3 mph 27.6 mph N/A   Overcast
6:32 AM 42.8 °F 34.5 °F 39.2 °F 87% 29.80 in 5.0 mi North 18.4 mph 24.2 mph N/A   Overcast
6:52 AM 42.8 °F 35.1 °F 39.2 °F 87% 29.80 in 5.0 mi North 16.1 mph 26.5 mph N/A   Overcast
7:13 AM 42.8 °F 35.1 °F 39.2 °F 87% 29.81 in 4.0 mi North 16.1 mph 23.0 mph N/A   Overcast
7:32 AM 42.8 °F 34.5 °F 39.2 °F 87% 29.80 in 4.0 mi North 18.4 mph 25.3 mph N/A   Overcast
7:52 AM 42.8 °F 34.0 °F 39.2 °F 87% 29.81 in 2.0 mi North 20.7 mph 29.9 mph N/A   Overcast
8:13 AM 42.8 °F 34.3 °F 37.4 °F 81% 29.81 in 2.5 mi North 19.6 mph 27.6 mph N/A   Overcast
8:32 AM 39.2 °F 29.8 °F 35.6 °F 87% 29.81 in 2.5 mi North 18.4 mph 26.5 mph N/A   Overcast
8:53 AM 37.4 °F 27.8 °F 33.8 °F 87% 29.83 in 7.0 mi North 17.3 mph 27.6 mph N/A   Overcast
9:12 AM 37.4 °F 26.6 °F 33.8 °F 87% - 10.0 mi North 21.9 mph 31.1 mph N/A   Overcast
9:32 AM 35.6 °F 23.4 °F 32.0 °F 87% 29.77 in 10.0 mi North 25.3 mph 31.1 mph N/A   Overcast
9:53 AM 35.6 °F 25.5 °F 32.0 °F 87% 29.80 in 10.0 mi North 17.3 mph 32.2 mph N/A   Overcast
10:32 AM 35.6 °F 25.9 °F 32.0 °F 87% 29.86 in 10.0 mi North 16.1 mph 31.1 mph N/A   Overcast
10:53 AM 35.6 °F 24.8 °F 32.0 °F 87% 29.87 in 10.0 mi North 19.6 mph 27.6 mph N/A   Overcast
11:12 AM 33.8 °F 23.5 °F 30.2 °F 87% 29.87 in 10.0 mi North 16.1 mph 26.5 mph N/A   Overcast
11:32 AM 35.6 °F 24.0 °F 32.0 °F 87% 29.87 in 10.0 mi North 23.0 mph 32.2 mph N/A   Overcast
11:53 AM 35.6 °F 24.2 °F 30.2 °F 81% 29.87 in 10.0 mi North 21.9 mph 27.6 mph N/A   Overcast
12:12 PM 33.8 °F 22.2 °F 30.2 °F 87% 29.87 in 10.0 mi North 20.7 mph 27.6 mph N/A   Overcast
12:33 PM 33.8 °F 22.8 °F 30.2 °F 87% 29.88 in 10.0 mi North 18.4 mph 29.9 mph N/A   Overcast
12:52 PM 33.8 °F 21.6 °F 30.2 °F 87% 29.88 in 10.0 mi North 23.0 mph 33.4 mph N/A   Overcast
1:12 PM 35.6 °F 24.0 °F 30.2 °F 81% 29.88 in 10.0 mi North 23.0 mph 32.2 mph N/A   Overcast
1:33 PM 33.8 °F 22.2 °F 30.2 °F 87% 29.87 in 10.0 mi North 20.7 mph 29.9 mph N/A   Overcast
1:52 PM 33.8 °F 23.2 °F 30.2 °F 87% 29.87 in 10.0 mi North 17.3 mph 27.6 mph N/A   Overcast
2:12 PM 33.8 °F 22.2 °F 30.2 °F 87% 29.88 in 10.0 mi North 20.7 mph 31.1 mph N/A   Overcast
2:33 PM 33.8 °F 23.9 °F 28.4 °F 81% 29.87 in 10.0 mi North 15.0 mph 27.6 mph N/A   Overcast
2:52 PM 33.8 °F 22.5 °F 28.4 °F 81% 29.85 in 10.0 mi North 19.6 mph 26.5 mph N/A   Overcast
3:12 PM 33.8 °F 22.5 °F 28.4 °F 81% 29.84 in 10.0 mi North 19.6 mph 27.6 mph N/A   Overcast
3:33 PM 33.8 °F 22.5 °F 30.2 °F 87% 29.83 in 3.0 mi North 19.6 mph 33.4 mph N/A Snow Light Snow
3:52 PM 35.6 °F 23.7 °F 30.2 °F 81% 29.83 in 10.0 mi North 24.2 mph 32.2 mph N/A Snow Light Snow
4:12 PM 35.6 °F 23.2 °F 28.4 °F 75% 29.82 in 10.0 mi North 26.5 mph 35.7 mph N/A   Overcast
4:32 PM 33.8 °F 21.0 °F 28.4 °F 81% 29.81 in 10.0 mi North 25.3 mph 34.5 mph N/A   Overcast
4:52 PM 33.8 °F 21.0 °F 28.4 °F 81% 29.81 in 10.0 mi North 25.3 mph 35.7 mph N/A   Overcast
5:12 PM 35.6 °F 24.2 °F 28.4 °F 75% 29.82 in 10.0 mi North 21.9 mph 33.4 mph N/A   Overcast
5:33 PM 35.6 °F 24.2 °F 28.4 °F 75% 29.84 in 10.0 mi North 21.9 mph 31.1 mph N/A   Overcast
5:52 PM 35.6 °F 24.8 °F 26.6 °F 70% 29.85 in 10.0 mi North 19.6 mph 28.8 mph N/A   Overcast
6:12 PM 35.6 °F 25.5 °F 26.6 °F 70% 29.86 in 10.0 mi North 17.3 mph 26.5 mph N/A   Overcast
6:33 PM 35.6 °F 25.9 °F 26.6 °F 70% 29.85 in 10.0 mi North 16.1 mph 31.1 mph N/A   Overcast
6:52 PM 35.6 °F 24.5 °F 26.6 °F 70% 29.84 in 10.0 mi North 20.7 mph 27.6 mph N/A   Overcast
7:12 PM 35.6 °F 24.0 °F 26.6 °F 70% 29.83 in 10.0 mi North 23.0 mph 31.1 mph N/A   Overcast
7:32 PM 35.6 °F 24.5 °F 26.6 °F 70% 29.83 in 10.0 mi North 20.7 mph 34.5 mph N/A   Overcast
7:52 PM 35.6 °F 25.5 °F 26.6 °F 70% 29.83 in 10.0 mi North 17.3 mph 32.2 mph N/A   Overcast
8:13 PM 35.6 °F 24.8 °F 26.6 °F 70% 29.83 in 10.0 mi North 19.6 mph 32.2 mph N/A   Overcast
8:32 PM 33.8 °F 23.2 °F 26.6 °F 75% 29.85 in 10.0 mi North 17.3 mph 26.5 mph N/A   Overcast
8:52 PM 33.8 °F 23.5 °F 26.6 °F 75% 29.86 in 10.0 mi North 16.1 mph 24.2 mph N/A   Overcast
9:13 PM 32.0 °F 20.8 °F 24.8 °F 75% 29.86 in 10.0 mi North 17.3 mph 29.9 mph N/A   Overcast
9:32 PM 32.0 °F 20.1 °F 24.8 °F 75% 29.87 in 10.0 mi North 19.6 mph 24.2 mph N/A   Overcast
9:52 PM 32.0 °F 20.5 °F 24.8 °F 75% 29.88 in 10.0 mi North 18.4 mph 28.8 mph N/A   Overcast
10:13 PM 32.0 °F 20.1 °F 23.0 °F 69% 29.90 in 10.0 mi North 19.6 mph 31.1 mph N/A   Overcast
10:32 PM 32.0 °F 19.2 °F 23.0 °F 69% 29.91 in 10.0 mi NNW 23.0 mph 34.5 mph N/A   Overcast
10:52 PM 32.0 °F 18.6 °F 23.0 °F 69% 29.92 in 10.0 mi NNW 25.3 mph 34.5 mph N/A   Overcast
11:13 PM 32.0 °F 18.9 °F 23.0 °F 69% 29.93 in 10.0 mi NNW 24.2 mph 42.6 mph N/A   Overcast
11:32 PM 32.0 °F 18.9 °F 23.0 °F 69% 29.93 in 10.0 mi NNW 24.2 mph 40.3 mph N/A   Overcast
11:52 PM 32.0 °F 19.2 °F 23.0 °F 69% 29.94 in 10.0 mi NNW 23.0 mph 39.1 mph N/A   Overcast